Regional Weather Roundup
Issued by NWS Binghamton, NY

Home | Current Version | Previous Version | Text Only | Print | Product List | Glossary On
Versions: 1 2 3 4 5 6 7 8 9 10 11 12 13 14 15 16 17 18 19 20 21 22 23 24 25 26 27 28
000
ASUS41 KBGM 210110
RWRBGM

REGIONAL WEATHER ROUNDUP
NATIONAL WEATHER SERVICE BINGHAMTON NY
800 PM EST MON FEB 20 2017

Note: "fair" indicates few or no clouds below 12,000 feet with no
significant weather and/or obstructions to visibility.

* = Station(s) that does not report precipitation, such as rain,
snow, etc, also no thunder or fog.

NYZ009-015>018-022>025-036-037-044>046-055>057-062-210200
...Central New York...

CITY           SKY/WX    TMP DP  RH WIND       PRES   REMARKS
Binghamton     CLEAR     29  16  58 NE7       30.29S WCI  22
Cortland       FAIR      30  21  69 NE6       30.33S WCI  24
Dansville      CLOUDY    32  20  61 CALM      30.33S
Elmira         CLOUDY    32  18  56 E6        30.32R WCI  26
Seneca Falls   CLEAR     30  19  64 CALM      30.37S
Ithaca         CLOUDY    28  19  69 E5        30.33F WCI  23
Hamilton       CLEAR     23  16  74 CALM      30.33F
Monticello     CLEAR     34  12  40 N8        30.31R WCI  27
Norwich        CLEAR     28  16  59 CALM      30.34S
Oneonta        CLEAR     28  12  50 NE3       30.30S
Penn Yan       PTCLDY    29  15  56 CALM      30.34S
Rome           CLOUDY    27  19  72 CALM      30.38S
Sidney         CLEAR     28  16  59 CALM      30.33S
Syracuse       CLOUDY    28  15  58 CALM      30.37F
$$

PAZ038>040-043-044-047-048-072-210200
...Northeast Pennsylvania...

CITY           SKY/WX    TMP DP  RH WIND       PRES   REMARKS
Hazleton       CLEAR     36  12  38 N7        30.29F WCI  30
Scranton       CLEAR     37  19  48 N6        30.31R WCI  32
$$
&&
KEY
WCI = Wind Chill Index
VSB = Visibility
HX  = Heat Index
$$




USA.gov is the U.S. government's official web portal to all federal, state and local government web resources and services.